TimeCST,TemperatureF,Dew PointF,Humidity,Sea Level PressureIn,VisibilityMPH,Wind Direction,Wind SpeedMPH,Gust SpeedMPH,PrecipitationIn,Events,Conditions,WindDirDegrees,DateUTC
12:15 AM,66.4,55.4,68,29.63,10.0,South,16.1,21.9,N/A,,Clear,170,2012-11-10 06:15:00
12:35 AM,67.1,55.4,66,29.62,10.0,South,18.4,24.2,N/A,,Clear,180,2012-11-10 06:35:00
12:55 AM,67.1,55.0,65,29.62,10.0,South,16.1,24.2,N/A,,Clear,170,2012-11-10 06:55:00
1:15 AM,66.7,54.7,65,29.61,10.0,South,16.1,-,N/A,,Clear,170,2012-11-10 07:15:00
1:35 AM,66.6,54.5,65,29.61,10.0,South,15.0,24.2,N/A,,Clear,170,2012-11-10 07:35:00
1:55 AM,66.6,54.0,64,29.61,10.0,South,15.0,-,N/A,,Clear,180,2012-11-10 07:55:00
2:15 AM,66.4,53.6,63,29.61,10.0,South,16.1,-,N/A,,Clear,180,2012-11-10 08:15:00
2:35 AM,66.4,53.1,62,29.61,10.0,South,16.1,23.0,N/A,,Clear,190,2012-11-10 08:35:00
2:55 AM,66.7,52.7,61,29.61,10.0,South,18.4,25.3,N/A,,Clear,190,2012-11-10 08:55:00
3:15 AM,67.1,52.3,59,29.60,10.0,South,19.6,26.5,N/A,,Clear,190,2012-11-10 09:15:00
3:35 AM,67.1,52.2,59,29.59,10.0,South,19.6,25.3,N/A,,Clear,190,2012-11-10 09:35:00
3:55 AM,66.6,52.0,59,29.60,10.0,South,17.3,24.2,N/A,,Clear,190,2012-11-10 09:55:00
4:15 AM,66.4,52.0,60,29.60,10.0,South,18.4,24.2,N/A,,Clear,190,2012-11-10 10:15:00
4:35 AM,66.2,51.8,60,29.60,10.0,South,17.3,24.2,N/A,,Clear,190,2012-11-10 10:35:00
4:55 AM,65.8,51.6,60,29.60,10.0,South,17.3,25.3,N/A,,Clear,190,2012-11-10 10:55:00
5:15 AM,65.5,51.3,60,29.60,10.0,South,18.4,-,N/A,,Clear,190,2012-11-10 11:15:00
5:35 AM,65.7,51.1,59,29.61,10.0,South,19.6,27.6,N/A,,Clear,190,2012-11-10 11:35:00
5:55 AM,65.7,50.9,59,29.61,10.0,SSW,18.4,25.3,N/A,,Clear,200,2012-11-10 11:55:00
6:15 AM,66.2,50.0,56,29.61,10.0,South,18.4,26.5,N/A,,Clear,190,2012-11-10 12:15:00
6:35 AM,65.1,50.5,59,29.61,10.0,South,16.1,23.0,N/A,,Clear,190,2012-11-10 12:35:00
6:55 AM,64.4,50.5,61,29.62,10.0,South,13.8,26.5,N/A,,Clear,180,2012-11-10 12:55:00
7:15 AM,63.9,50.2,61,29.63,10.0,South,15.0,20.7,N/A,,Clear,190,2012-11-10 13:15:00
7:35 AM,63.7,50.4,62,29.63,10.0,SSW,13.8,20.7,N/A,,Clear,200,2012-11-10 13:35:00
7:55 AM,64.6,50.5,60,29.63,10.0,SSW,17.3,24.2,N/A,,Clear,200,2012-11-10 13:55:00
8:15 AM,65.5,50.9,59,29.64,10.0,South,19.6,24.2,N/A,,Clear,190,2012-11-10 14:15:00
8:35 AM,66.9,51.1,57,29.64,10.0,South,19.6,25.3,N/A,,Clear,190,2012-11-10 14:35:00
8:55 AM,68.0,51.3,55,29.64,10.0,South,19.6,25.3,N/A,,Clear,190,2012-11-10 14:55:00
9:15 AM,69.1,50.9,52,29.64,10.0,South,20.7,31.1,N/A,,Clear,190,2012-11-10 15:15:00
9:35 AM,70.5,50.5,49,29.63,10.0,SSW,23.0,33.4,N/A,,Clear,200,2012-11-10 15:35:00
9:55 AM,71.6,50.5,47,29.63,10.0,SSW,27.6,35.7,N/A,,Clear,200,2012-11-10 15:55:00
10:15 AM,70.3,51.1,50,29.63,10.0,SSW,20.7,32.2,N/A,,Clear,200,2012-11-10 16:15:00
10:35 AM,72.0,51.1,48,29.63,10.0,South,21.9,33.4,N/A,,Clear,180,2012-11-10 16:35:00
10:55 AM,73.0,51.4,47,29.62,10.0,South,24.2,29.9,N/A,,Clear,190,2012-11-10 16:55:00
11:15 AM,73.4,51.4,46,29.61,10.0,South,27.6,35.7,N/A,,Scattered Clouds,190,2012-11-10 17:15:00
11:35 AM,75.0,51.4,44,29.60,10.0,SSW,20.7,34.5,N/A,,Scattered Clouds,200,2012-11-10 17:35:00
11:55 AM,75.4,51.1,42,29.60,10.0,South,26.5,36.8,N/A,,Clear,190,2012-11-10 17:55:00
12:15 PM,75.9,51.1,42,29.59,10.0,South,28.8,36.8,N/A,,Clear,180,2012-11-10 18:15:00
12:35 PM,76.5,50.9,41,29.58,10.0,South,27.6,32.2,N/A,,Clear,180,2012-11-10 18:35:00
12:55 PM,76.1,50.9,41,29.57,10.0,South,29.9,36.8,N/A,,Clear,190,2012-11-10 18:55:00
1:15 PM,75.7,51.3,42,29.56,10.0,South,25.3,34.5,N/A,,Scattered Clouds,190,2012-11-10 19:15:00
1:35 PM,76.5,50.7,40,29.55,7.0,SSW,27.6,40.3,N/A,,Scattered Clouds,200,2012-11-10 19:35:00
1:55 PM,75.9,51.3,42,29.54,10.0,South,28.8,38.0,N/A,,Clear,180,2012-11-10 19:55:00
2:15 PM,75.2,51.8,44,29.54,10.0,South,33.4,39.1,N/A,,Clear,190,2012-11-10 20:15:00
2:35 PM,74.8,51.8,44,29.53,10.0,South,32.2,39.1,N/A,,Clear,180,2012-11-10 20:35:00
2:55 PM,74.7,51.8,45,29.53,10.0,South,29.9,40.3,N/A,,Clear,180,2012-11-10 20:55:00
3:15 PM,75.4,51.1,42,29.52,10.0,South,28.8,40.3,N/A,,Clear,190,2012-11-10 21:15:00
3:35 PM,74.7,51.4,44,29.53,10.0,South,21.9,38.0,N/A,,Clear,180,2012-11-10 21:35:00
3:55 PM,74.3,51.8,45,29.53,10.0,South,27.6,34.5,N/A,,Clear,180,2012-11-10 21:55:00
4:15 PM,73.0,51.8,47,29.53,10.0,South,29.9,36.8,N/A,,Scattered Clouds,180,2012-11-10 22:15:00
4:35 PM,72.5,52.3,49,29.53,10.0,South,23.0,32.2,N/A,,Scattered Clouds,180,2012-11-10 22:35:00
4:55 PM,71.6,52.2,50,29.53,10.0,South,20.7,29.9,N/A,,Scattered Clouds,180,2012-11-10 22:55:00
5:15 PM,70.9,52.5,52,29.53,10.0,South,20.7,31.1,N/A,,Clear,180,2012-11-10 23:15:00
5:35 PM,70.2,52.7,54,29.53,10.0,South,24.2,31.1,N/A,,Clear,180,2012-11-10 23:35:00
5:55 PM,70.0,52.7,54,29.53,10.0,South,25.3,34.5,N/A,,Scattered Clouds,180,2012-11-10 23:55:00
6:15 PM,69.4,52.7,55,29.53,10.0,South,25.3,34.5,N/A,,Clear,170,2012-11-11 00:15:00
6:35 PM,69.3,52.7,56,29.51,10.0,South,29.9,38.0,N/A,,Clear,180,2012-11-11 00:35:00
6:55 PM,69.3,52.7,56,29.50,10.0,South,28.8,36.8,N/A,,Clear,170,2012-11-11 00:55:00
7:15 PM,69.4,52.2,54,29.51,10.0,South,26.5,34.5,N/A,,Clear,180,2012-11-11 01:15:00
7:35 PM,69.8,51.8,53,29.50,10.0,South,29.9,39.1,N/A,,Clear,180,2012-11-11 01:35:00
7:55 PM,69.8,51.4,52,29.51,10.0,South,28.8,46.0,N/A,Thunderstorm,Scattered Clouds,180,2012-11-11 01:55:00
8:15 PM,69.4,52.5,55,29.55,10.0,SSW,25.3,35.7,N/A,Rain,Light Rain,200,2012-11-11 02:15:00
8:35 PM,67.5,54.0,62,29.58,10.0,SSW,28.8,47.2,N/A,Rain-Thunderstorm,Light Thunderstorms and Rain,210,2012-11-11 02:35:00
8:55 PM,56.1,51.8,85,29.57,4.0,South,18.4,24.2,0.32,Rain-Thunderstorm,Heavy Thunderstorms and Rain,190,2012-11-11 02:55:00
9:15 PM,59.2,54.9,86,29.51,7.0,SSE,20.7,29.9,0.04,Rain-Thunderstorm,Light Thunderstorms and Rain,160,2012-11-11 03:15:00
9:35 PM,60.4,55.6,84,29.58,10.0,SW,12.7,-,0.05,Rain,Light Rain,230,2012-11-11 03:35:00
9:55 PM,60.8,53.6,77,29.64,5.0,SW,23.0,35.7,N/A,Rain,Rain,230,2012-11-11 03:55:00
10:15 PM,58.6,53.2,82,29.62,7.0,South,10.4,-,0.02,Rain-Thunderstorm,Thunderstorms and Rain,190,2012-11-11 04:15:00
10:35 PM,57.9,52.9,83,29.61,10.0,SW,8.1,-,0.04,Rain-Thunderstorm,Light Thunderstorms and Rain,230,2012-11-11 04:35:00
10:55 PM,57.6,53.1,85,29.64,10.0,WSW,9.2,-,0.04,,Overcast,240,2012-11-11 04:55:00
11:15 PM,48.9,43.9,83,29.65,10.0,NW,20.7,26.5,N/A,Thunderstorm,Unknown,320,2012-11-11 05:15:00
11:35 PM,46.2,41.7,84,29.65,10.0,NNW,24.2,27.6,N/A,Rain,Light Rain,330,2012-11-11 05:35:00
11:55 PM,45.0,40.3,84,29.66,10.0,NW,16.1,23.0,N/A,Thunderstorm,Overcast,320,2012-11-11 05:55:00